Date,TemperatureHighF,TemperatureAvgF,TemperatureLowF,DewpointHighF,DewpointAvgF,DewpointLowF,HumidityHigh,HumidityAvg,HumidityLow,PressureMaxIn,PressureMinIn,WindSpeedMaxMPH,WindSpeedAvgMPH,GustSpeedMaxMPH,PrecipitationSumIn
2013-1-1,36.8,32.6,23.6,29.0,23.5,15.0,73,69,63,29.92,29.75,13,4,0,0.01
2013-1-2,32.0,23.4,15.2,21.0,14.2,9.0,76,68,59,30.09,29.91,11,2,0,0.01
2013-1-3,29.1,17.9,9.4,14.0,6.0,-1.0,76,60,42,30.15,30.02,4,0,0,0.02
2013-1-4,37.9,30.9,21.3,28.0,22.6,15.0,75,71,62,30.01,29.84,20,6,0,0.04
2013-1-5,46.5,34.2,27.6,28.0,21.6,-99.9,74,65,46,30.27,29.89,16,4,0,0.01
2013-1-6,42.8,34.4,28.1,34.0,21.8,10.0,74,61,37,30.23,29.95,22,-8,0,0.03
2013-1-7,44.5,35.3,28.9,33.0,24.3,15.0,72,65,49,30.41,29.97,6,1,0,0.00
2013-1-8,46.4,39.3,31.0,36.0,26.9,13.0,72,62,44,30.39,30.30,24,9,0,0.00
2013-1-9,46.5,37.1,26.0,37.0,17.6,4.0,71,46,33,30.40,30.03,24,4,0,0.00
2013-1-10,50.4,42.2,32.8,36.0,28.4,24.0,71,59,43,30.52,30.08,12,2,0,0.00
2013-1-11,41.0,36.0,29.6,33.0,25.3,13.0,76,66,35,30.51,30.21,11,0,0,0.08
2013-1-12,40.3,9.7,39.1,13.0,-72.5,-99.9,35,13,28,30.23,30.11,5,0,0,0.00
2013-1-13,-200.0,0.0,200.0,-99.9,-99.9,-99.9,0,0,100,30.16,30.03,10,3,0,0.00
2013-1-14,52.5,11.5,41.9,38.0,-67.8,-99.9,65,14,21,30.25,29.95,21,5,0,0.02
2013-1-15,42.5,34.9,37.0,19.0,-5.9,-99.9,39,24,17,30.29,30.21,4,0,0,0.00
2013-1-16,38.2,13.0,34.5,9.0,-64.3,-99.9,31,8,18,30.23,29.75,7,1,0,0.00
2013-1-17,43.8,23.7,33.7,33.0,-23.3,-99.9,67,38,27,30.07,29.86,9,2,0,0.00
2013-1-18,33.4,24.8,18.9,22.0,7.6,-99.9,69,51,37,30.49,30.01,11,2,0,0.02
2013-1-19,46.3,39.7,18.7,35.0,26.4,9.0,69,60,39,30.43,29.94,33,16,0,0.00
2013-1-20,53.6,44.9,30.5,40.0,25.5,8.0,64,48,21,29.93,29.59,25,13,0,0.00
2013-1-21,30.7,27.3,23.5,18.0,9.2,-7.0,68,49,24,30.11,29.77,10,2,0,0.00
2013-1-22,27.4,22.1,13.7,14.0,0.9,-9.0,67,42,24,30.08,29.74,13,2,0,0.03
2013-1-23,18.2,12.7,8.3,3.0,-1.5,-6.0,68,54,42,30.16,30.07,19,2,0,0.00
2013-1-24,22.1,13.0,4.9,1.0,-3.4,-6.0,62,49,36,30.21,30.06,7,2,0,0.00
2013-1-25,26.2,17.8,8.7,11.0,1.1,-5.0,66,49,34,30.30,30.04,6,1,0,0.00
2013-1-26,30.1,20.2,13.3,15.0,4.5,-4.0,68,51,41,30.22,29.98,7,1,0,0.02
2013-1-27,34.1,21.8,13.8,11.0,6.3,2.0,66,53,35,30.46,30.22,7,1,0,0.00
2013-1-28,33.1,26.0,17.3,21.0,6.3,-5.0,67,47,22,30.46,30.00,5,0,0,0.00
2013-1-29,37.8,10.4,33.2,3.0,-70.5,-99.9,24,10,22,30.20,29.99,2,0,0,0.02
2013-1-30,-90.0,-79.4,-90.0,-99.9,-99.9,-99.9,0,0,100,30.16,29.57,26,11,0,0.00
2013-1-31,54.0,-23.0,-90.0,42.0,-35.7,-99.9,65,28,47,29.63,29.09,32,16,0,0.00
2013-2-1,34.1,29.6,23.4,19.0,13.8,8.0,64,52,41,30.09,29.62,18,6,0,0.00
2013-2-2,30.5,25.5,19.2,22.0,12.0,-99.9,71,60,47,30.25,30.05,16,5,0,0.00
2013-2-3,37.3,28.0,22.8,27.0,14.5,6.0,68,58,42,30.05,29.70,6,1,0,0.00
2013-2-4,31.9,26.0,21.5,17.0,11.9,5.0,68,56,43,29.96,29.72,16,3,0,0.00
2013-2-5,28.1,25.5,23.1,17.0,11.3,-1.0,70,57,29,30.04,29.91,1,0,0,0.00
2013-2-6,41.2,32.0,27.8,29.0,10.9,-1.0,69,44,29,30.28,29.90,10,1,0,0.03
2013-2-7,33.8,26.9,20.3,19.0,11.8,8.0,70,54,37,30.53,30.29,8,1,0,0.00
2013-2-8,33.9,27.5,26.6,22.0,-2.8,-99.9,70,43,25,30.46,29.46,14,2,0,0.01
2013-2-13,41.6,34.5,30.5,31.0,19.5,-99.9,72,60,45,29.89,29.66,15,-14,0,0.00
2013-2-14,46.0,34.9,29.1,32.0,18.0,2.0,71,52,30,30.02,29.69,10,2,0,0.04
2013-2-15,44.2,32.9,27.9,32.0,2.1,-99.9,63,37,26,30.05,29.95,17,6,0,0.00
2013-2-16,38.1,26.8,29.9,27.0,-13.1,-99.9,65,31,29,29.95,29.62,5,1,0,0.02
2013-2-17,33.1,23.2,18.5,19.0,8.0,0.0,75,53,30,29.67,29.33,19,5,0,0.00
2013-2-18,33.5,23.8,16.0,11.0,7.2,4.0,61,50,34,30.17,29.68,13,4,0,0.02
2013-2-19,44.9,31.1,23.8,33.0,7.3,-99.9,71,51,26,30.18,29.58,14,4,0,0.20
2013-2-20,37.3,25.4,26.7,25.0,-8.5,-99.9,69,43,26,29.80,29.56,15,6,0,0.00
2013-2-21,38.4,29.7,25.8,20.0,17.4,16.0,70,61,46,30.13,29.79,15,4,0,0.00
2013-2-22,38.7,33.2,28.2,29.0,23.7,19.0,70,68,61,30.36,30.13,10,1,0,0.00
2013-2-23,39.5,35.2,31.3,29.0,16.6,5.0,65,49,26,30.32,29.85,6,1,0,0.25
2013-2-24,38.4,-57.2,-90.0,6.0,-92.2,-99.9,26,2,25,29.87,29.61,12,2,0,0.65
2013-2-25,44.8,-15.7,-90.0,34.0,-30.5,-99.9,68,29,26,30.25,29.88,5,0,0,0.09
2013-2-26,45.6,36.7,28.9,33.0,17.7,0.0,67,48,26,30.34,30.13,6,1,0,0.00
2013-2-27,44.1,-5.2,-90.0,17.0,-29.9,-99.9,42,19,24,30.12,29.56,27,9,0,0.68
2013-2-28,43.6,-38.5,-90.0,20.0,-55.2,-99.9,40,13,27,29.66,29.51,6,1,0,0.00
2013-3-1,43.8,5.9,-90.0,35.0,-6.0,-99.9,71,48,27,29.67,29.52,5,0,0,0.00
2013-3-2,43.7,38.3,34.4,32.0,28.7,24.0,71,69,60,29.68,29.61,6,1,0,0.00
2013-3-3,41.2,36.5,32.3,31.0,27.1,18.0,71,69,55,29.63,29.55,11,2,0,0.00
2013-3-4,43.2,35.8,30.1,29.0,24.4,16.0,72,64,53,29.71,29.57,10,2,0,0.00
2013-3-5,46.6,37.5,31.6,36.0,25.7,9.0,72,63,35,30.05,29.71,11,1,0,0.00
2013-3-6,43.5,38.0,34.4,34.0,17.2,7.0,69,45,29,30.05,29.91,11,4,0,0.06
2013-3-7,36.8,33.7,33.9,18.0,4.7,-99.9,47,34,31,29.91,29.86,16,6,0,0.67
2013-3-8,39.2,6.1,37.5,29.0,-80.7,-99.9,68,13,27,30.05,29.84,11,3,0,0.12
2013-3-9,42.9,36.6,28.6,33.0,23.2,3.0,69,59,33,30.32,30.05,7,2,0,0.02
2013-3-10,47.1,38.2,30.0,37.0,22.4,3.0,70,55,30,30.38,30.31,5,1,0,0.01
2013-3-11,47.4,40.0,35.4,34.0,20.7,12.0,62,47,31,30.33,30.18,18,4,0,0.00
2013-3-12,48.6,16.3,40.6,13.0,-59.2,-99.9,31,12,23,30.19,29.75,23,4,0,0.83
2013-3-13,56.1,27.3,35.9,39.0,-24.2,-99.9,66,32,43,29.79,29.68,12,2,0,0.05
2013-3-14,38.5,33.1,25.4,26.0,20.0,9.0,71,59,47,29.84,29.70,15,2,0,0.00
2013-3-15,39.8,31.3,22.4,28.0,18.6,10.0,70,60,39,29.88,29.67,23,6,0,0.00
2013-3-16,39.5,35.0,28.9,27.0,23.0,16.0,71,62,42,29.87,29.69,8,2,0,0.00
2013-3-17,41.8,34.1,27.7,26.0,18.0,8.0,71,54,32,30.29,29.86,8,1,0,0.00
2013-3-18,37.1,30.4,21.1,25.0,17.6,7.0,70,60,48,30.45,30.24,9,1,0,0.00
2013-3-19,38.2,16.2,31.4,26.0,-49.1,-99.9,70,17,26,30.23,29.50,15,3,0,0.64
2013-3-20,42.5,31.8,28.5,28.0,10.1,-99.9,69,53,27,29.82,29.66,18,5,0,0.03
2013-3-21,40.7,32.7,28.0,29.0,15.1,1.0,67,50,29,29.82,29.59,5,1,0,0.00
2013-3-22,40.2,32.5,25.5,28.0,14.4,0.0,71,49,29,29.76,29.60,11,2,0,0.18
2013-3-23,45.2,37.0,29.6,27.0,23.4,21.0,72,59,43,29.78,29.64,12,4,0,0.00
2013-3-24,49.0,38.1,30.9,35.0,26.4,22.0,71,63,47,29.82,29.73,6,2,0,0.00
2013-3-25,47.8,38.5,30.3,36.0,25.5,14.0,70,60,42,29.76,29.46,10,2,0,0.02
2013-3-26,51.6,41.3,33.1,32.0,27.3,14.0,71,58,43,29.77,29.46,7,2,0,0.00
2013-3-27,53.7,43.6,31.2,34.0,27.4,22.0,72,55,37,29.85,29.73,8,1,0,0.00
2013-3-28,51.6,42.5,36.7,38.0,28.0,12.0,70,58,35,30.02,29.84,7,1,0,0.02
2013-3-29,57.7,44.8,37.3,41.0,33.9,27.0,70,66,52,30.04,29.98,13,2,0,0.01
2013-3-30,52.5,44.6,32.4,39.0,33.1,14.0,70,64,47,30.10,30.02,16,2,0,0.00
2013-3-31,50.3,41.4,28.1,40.0,26.0,7.0,70,55,34,30.13,29.76,14,3,0,0.05
2013-4-1,52.7,38.7,37.1,39.0,3.6,-99.9,67,36,24,29.80,29.56,25,9,0,0.14
2013-4-2,42.9,35.7,28.8,24.0,18.7,13.0,67,51,34,29.98,29.81,18,-6,0,0.00
2013-4-3,47.1,37.8,31.2,23.0,18.3,16.0,59,46,32,30.16,29.95,14,5,0,0.00
2013-4-4,45.0,37.8,28.2,33.0,24.2,17.0,68,59,39,30.31,30.09,26,9,0,0.00
2013-4-5,50.9,42.8,39.3,38.0,23.7,10.0,66,48,27,30.09,29.65,19,7,0,0.01
2013-4-6,49.9,41.2,34.4,30.0,21.5,13.0,68,49,24,30.33,29.84,11,3,0,0.00
2013-4-7,47.4,42.2,28.1,36.0,26.3,6.0,66,55,31,30.33,30.05,20,9,0,0.00
2013-4-8,59.0,50.4,44.9,47.0,31.6,12.0,65,51,25,30.12,29.98,17,4,0,0.00
2013-4-9,77.1,48.3,44.8,54.0,20.3,-99.9,65,41,18,30.11,29.85,15,3,0,0.01
2013-4-10,61.1,50.8,45.7,48.0,25.0,11.0,63,39,23,30.00,29.86,10,1,0,0.29
2013-4-11,55.6,35.2,45.4,44.0,-7.1,-99.9,67,36,22,30.12,29.80,8,1,0,0.02
2013-4-12,45.4,39.1,38.8,35.0,12.2,-99.9,67,47,23,30.14,29.69,19,4,0,0.77
2013-4-13,53.2,30.4,40.1,41.0,-19.0,-99.9,65,27,24,29.94,29.68,15,3,0,0.03
2013-4-14,55.1,47.3,39.0,41.0,26.4,7.0,66,46,25,30.21,29.93,15,-8,0,0.00
2013-4-15,52.8,45.2,35.3,41.0,32.3,21.0,67,61,41,30.42,30.20,11,2,0,0.00
2013-4-16,55.4,48.2,39.8,42.0,25.1,10.0,62,42,25,30.42,30.13,22,8,0,0.00
2013-4-17,64.2,54.0,43.1,49.0,29.5,13.0,65,43,21,30.33,30.09,21,4,0,0.01
2013-4-18,58.8,48.8,35.9,45.0,27.5,5.0,65,46,23,30.42,30.17,7,2,0,0.00
2013-4-19,54.3,8.3,51.1,19.0,-81.9,-99.9,28,4,21,30.16,29.74,30,16,0,0.02
2013-4-20,56.1,24.7,45.4,44.0,-33.7,-99.9,66,29,25,30.19,29.67,27,10,0,0.16
2013-4-21,54.3,44.4,34.9,36.0,29.6,21.0,69,57,44,30.67,30.20,5,1,0,0.00
2013-4-22,53.9,43.1,31.8,39.0,26.2,5.0,66,53,26,30.72,30.55,12,2,0,0.00
2013-4-23,46.5,35.4,41.5,28.0,-10.5,-99.9,59,24,22,30.55,30.02,8,2,0,0.00
2013-4-24,56.7,30.5,46.1,36.0,-27.7,-99.9,48,19,21,30.00,29.86,21,10,0,0.00
2013-4-25,59.5,33.4,43.9,45.0,-14.3,-99.9,66,33,20,30.24,29.90,19,5,0,0.00
2013-4-26,59.7,50.1,37.0,47.0,29.0,5.0,64,47,22,30.41,30.25,5,1,0,0.00
2013-4-27,57.6,49.0,37.0,44.0,27.2,5.0,65,46,22,30.42,30.32,12,2,0,0.00
2013-4-28,60.5,50.1,37.8,47.0,26.7,6.0,64,43,22,30.36,30.27,16,-7,0,0.00
2013-4-29,60.8,52.4,45.0,45.0,27.9,10.0,64,41,22,30.29,30.24,16,4,0,0.00
2013-4-30,61.9,50.5,36.4,46.0,32.7,8.0,65,52,23,30.36,30.25,5,1,0,0.00
2013-5-1,67.1,51.7,36.3,51.0,31.5,9.0,62,47,26,30.46,30.36,6,-20,0,0.00
2013-5-2,67.9,52.3,39.6,51.0,26.7,-99.9,63,42,21,30.46,30.36,9,1,0,0.00
2013-5-3,56.7,48.3,40.0,43.0,25.3,7.0,61,42,23,30.48,30.35,7,1,0,0.00
2013-5-4,56.6,47.8,40.0,44.0,25.6,-99.9,65,46,22,30.34,30.30,9,2,0,0.00
2013-5-5,61.3,49.5,36.9,47.0,27.2,6.0,64,44,22,30.30,30.24,8,1,0,0.00
2013-5-6,62.2,50.8,44.6,44.0,21.1,10.0,57,32,22,30.29,30.17,5,1,0,0.00
2013-5-7,66.3,38.5,48.8,36.0,-23.4,-99.9,35,14,17,30.19,30.13,8,2,0,0.00
2013-5-8,69.4,36.6,57.0,33.0,-31.1,-99.9,26,12,14,30.20,30.04,7,1,0,0.00
2013-5-9,-200.0,0.0,200.0,-99.9,-99.9,-99.9,0,0,100,30.04,29.87,11,1,0,0.03
2013-5-10,70.0,-6.0,-90.0,57.0,-32.7,-99.9,64,20,18,29.97,29.88,20,5,0,0.00
2013-5-11,62.1,-34.4,-90.0,17.0,-90.2,-99.9,19,3,17,29.94,29.72,21,11,0,0.17
2013-5-12,64.8,23.5,48.6,52.0,-43.4,-99.9,68,22,22,29.82,29.59,18,8,0,0.00
2013-5-13,55.4,50.3,42.4,43.0,37.6,33.0,70,62,51,30.01,29.82,27,8,0,0.00
2013-5-14,57.4,49.5,39.9,42.0,36.5,29.0,70,62,44,30.04,29.97,18,2,0,0.00
2013-5-15,58.9,51.8,41.7,47.0,27.8,11.0,69,43,19,30.06,29.69,18,8,0,0.00
2013-5-16,75.9,46.6,56.8,56.0,4.6,-99.9,65,39,15,29.78,29.66,24,8,0,0.00
2013-5-17,66.1,58.4,48.5,49.0,41.1,17.0,65,53,27,30.21,29.78,11,1,0,0.00
2013-5-18,61.7,54.9,44.4,42.0,23.3,8.0,51,30,20,30.31,30.22,16,5,0,0.00
2013-5-19,64.8,54.3,49.6,52.0,22.6,-99.9,63,37,19,30.35,30.24,18,6,0,0.00
2013-5-20,69.7,19.7,63.1,39.0,-61.9,-99.9,33,8,18,30.23,29.92,14,6,0,0.00
2013-5-21,70.0,16.3,58.7,29.0,-69.5,-99.9,26,5,16,29.96,29.85,18,3,0,0.02
2013-5-22,64.8,8.6,63.1,17.0,-84.1,-99.9,16,4,15,29.97,29.90,15,4,0,0.00
2013-5-23,-200.0,0.0,200.0,-99.9,-99.9,-99.9,0,0,100,29.95,29.85,21,14,0,0.00
2013-5-24,-200.0,0.0,200.0,-99.9,-99.9,-99.9,0,0,100,29.84,29.67,22,7,0,0.00
2013-5-25,54.9,28.7,42.3,28.0,-32.1,-99.9,38,16,24,29.74,29.67,6,1,0,0.00
2013-5-26,59.8,49.7,41.0,45.0,35.2,13.0,72,59,31,30.09,29.72,13,2,0,0.00
2013-5-27,72.1,57.5,44.2,53.0,41.5,22.0,72,57,34,30.15,30.07,19,5,0,0.00
2013-5-28,65.0,57.2,43.7,54.0,34.1,10.0,68,46,19,30.23,30.16,15,4,0,0.00
2013-5-29,65.9,29.8,59.0,41.0,-39.6,-99.9,42,13,19,30.21,30.02,17,8,0,0.33
2013-5-30,78.7,45.7,65.3,66.0,-3.6,-99.9,66,31,21,30.09,30.01,16,5,0,0.00
2013-5-31,82.1,69.9,60.6,69.0,43.9,19.0,67,43,19,30.09,29.97,15,4,0,0.00
2013-6-1,72.0,66.4,62.0,54.0,32.7,19.0,53,31,18,29.99,29.92,19,9,0,0.00
2013-6-2,67.6,52.9,63.1,42.0,2.7,-99.9,40,21,19,29.93,29.83,22,-6,0,0.00
2013-6-3,64.5,5.4,64.1,22.0,-89.8,-99.9,20,3,19,29.85,29.79,19,9,0,0.48
2013-6-4,72.0,48.6,52.1,53.0,12.9,-99.9,71,45,29,30.06,29.79,11,1,0,0.00
2013-6-5,67.5,59.9,48.4,54.0,42.9,17.0,69,55,23,30.18,30.06,16,4,0,0.00
2013-6-6,69.7,62.0,53.2,56.0,43.1,15.0,67,52,19,30.19,30.08,7,2,0,0.00
2013-6-7,61.3,33.6,58.3,44.0,-30.0,-99.9,56,18,18,30.09,29.73,15,1,0,0.02
2013-6-8,72.7,33.0,63.1,60.0,-32.4,-99.9,64,18,18,29.99,29.53,21,9,0,0.00
2013-6-9,76.0,58.9,59.8,62.0,26.5,-99.9,67,44,18,30.15,29.99,16,4,0,0.00
2013-6-10,71.3,64.0,60.0,57.0,33.3,-99.9,62,35,17,30.18,29.98,4,0,0,0.36
2013-6-11,69.8,8.6,65.8,33.0,-83.6,-99.9,26,5,19,29.98,29.52,15,7,0,0.05
2013-6-12,71.7,52.8,58.5,58.0,20.6,-99.9,67,45,18,29.79,29.55,11,2,0,0.00
2013-6-18,76.9,63.7,61.3,64.0,35.4,-99.9,65,45,18,29.92,29.85,4,0,0,0.01
2013-6-19,73.5,64.9,58.4,58.0,40.4,17.0,68,44,19,30.14,29.84,5,0,0,0.00
2013-6-20,69.8,63.7,56.9,57.0,38.6,16.0,66,43,19,30.27,30.14,19,7,0,0.00
2013-6-21,71.0,66.3,60.7,58.0,50.6,36.0,66,58,40,30.28,30.21,20,10,0,0.00
2013-6-22,75.6,67.3,61.7,62.0,41.6,19.0,64,42,17,30.24,30.16,18,8,0,0.00
2013-6-23,73.7,57.9,65.8,51.0,9.3,-99.9,46,23,16,30.18,30.05,21,11,0,0.00
2013-6-24,84.8,39.7,72.7,70.0,-21.6,-99.9,63,25,17,30.05,29.88,13,7,0,0.00
2013-6-25,81.4,37.6,68.7,63.0,-28.8,-99.9,55,15,15,29.91,29.76,11,-476,0,0.00
2013-6-26,82.3,76.6,71.7,63.0,40.0,22.0,53,30,15,29.83,29.72,19,4,0,0.00
2013-6-27,75.1,53.1,67.5,38.0,-6.7,-99.9,27,15,15,29.84,29.74,5,0,0,0.00
2013-6-28,-200.0,0.0,200.0,-99.9,-99.9,-99.9,0,0,100,29.74,29.55,20,11,0,0.62
2013-6-29,-14.2,-47.1,-90.0,-99.9,-99.9,-99.9,16,0,16,29.76,29.55,19,12,0,0.04
2013-6-30,73.3,14.1,70.5,59.0,-71.2,-99.9,65,9,18,29.95,29.75,12,9,0,0.00
2013-7-1,-200.0,0.0,200.0,-99.9,-99.9,-99.9,22,1,20,30.11,29.95,17,9,0,0.01
2013-7-2,76.0,12.7,73.6,48.0,-76.6,-99.9,39,5,18,30.20,30.10,16,9,0,0.01
2013-7-3,78.0,41.0,73.6,64.0,-18.0,-99.9,62,26,17,30.22,30.17,18,10,0,0.00
2013-7-4,81.6,52.5,74.0,70.0,2.5,-99.9,68,32,17,30.21,30.12,18,9,0,0.00
2013-7-5,84.3,78.0,73.3,73.0,51.9,27.0,71,45,17,30.16,30.06,13,7,0,0.07
2013-7-6,86.7,79.5,74.0,76.0,52.5,27.0,71,45,17,30.08,29.96,12,4,0,0.00
2013-7-7,85.7,75.9,74.3,75.0,43.8,-99.9,72,41,15,30.01,29.90,15,4,0,0.00
2013-7-8,86.3,70.6,71.2,75.0,36.6,-99.9,72,43,16,30.03,29.92,17,6,0,0.00
2013-7-9,74.3,63.0,69.3,51.0,14.3,-99.9,45,22,16,30.08,30.01,1,0,0,0.00
2013-7-10,78.4,57.0,73.5,47.0,-3.6,-99.9,34,15,15,30.06,29.82,18,8,0,0.12
2013-7-11,76.6,75.0,72.7,33.0,27.4,26.0,22,17,16,29.89,29.79,13,6,0,0.04
2013-7-12,72.8,43.9,65.9,55.0,-12.3,-99.9,57,24,16,30.16,29.89,4,0,0,0.01
2013-7-13,77.3,72.3,68.1,49.0,27.1,21.0,38,19,15,30.29,30.16,13,0,0,0.26
2013-7-14,83.8,43.9,73.9,64.0,-19.5,-99.9,52,19,12,30.29,30.18,11,2,0,0.13
2013-7-15,86.9,50.2,74.5,72.0,-6.8,-99.9,65,25,14,30.19,30.09,5,1,0,0.00
2013-7-16,87.8,80.1,71.7,75.0,54.5,24.0,70,47,15,30.15,30.07,1,0,0,0.00
2013-7-17,83.9,77.7,73.1,71.0,48.2,23.0,69,41,14,30.17,30.03,16,-6,0,0.00
2013-7-18,76.3,5.5,74.3,39.0,-90.2,-99.9,28,2,18,30.02,29.95,11,2,0,0.00
2013-7-19,86.2,29.4,79.0,65.0,-45.6,-99.9,50,13,21,29.94,29.76,17,9,0,0.00
2013-7-20,83.1,27.9,77.7,65.0,-47.7,-99.9,56,13,15,29.79,29.66,16,8,0,0.00
2013-7-21,-200.0,0.0,200.0,-99.9,-99.9,-99.9,0,0,100,29.98,29.80,5,1,0,0.00
2013-7-22,81.1,26.4,73.5,68.0,-46.0,-99.9,66,19,29,29.99,29.87,4,0,0,0.00
2013-7-23,81.1,19.4,76.8,45.0,-68.0,-99.9,31,4,12,29.86,29.54,20,7,0,0.00
2013-7-24,83.6,25.3,76.8,69.0,-51.2,-99.9,62,14,15,29.89,29.57,14,-8,0,0.00
2013-7-25,-200.0,0.0,200.0,-99.9,-99.9,-99.9,0,0,100,30.04,29.89,5,0,0,0.00
2013-7-26,-200.0,0.0,200.0,-99.9,-99.9,-99.9,0,0,100,30.01,29.88,5,1,0,0.00
2013-7-27,73.3,3.9,72.6,34.0,-92.8,-99.9,24,1,22,30.05,30.00,11,-265,0,0.00
2013-7-28,-200.0,0.0,200.0,-99.9,-99.9,-99.9,0,0,100,30.01,29.93,10,1,0,0.00
2013-7-29,78.4,26.0,74.9,40.0,-55.8,-99.9,27,6,13,30.03,29.98,12,-8,0,0.00
2013-7-30,82.4,30.3,72.4,67.0,-36.9,-99.9,67,23,51,30.08,30.01,6,0,0,0.00
2013-7-31,73.1,12.9,66.7,60.0,-72.1,-99.9,63,9,41,30.12,30.06,2,0,0,0.00
2013-8-1,-200.0,0.0,200.0,-99.9,-99.9,-99.9,0,0,100,29.92,29.89,10,4,0,0.00
2013-8-2,-200.0,0.0,200.0,-99.9,-99.9,-99.9,0,0,100,29.88,29.79,13,-7,0,0.00
2013-8-3,-200.0,0.0,200.0,-99.9,-99.9,-99.9,0,0,100,29.88,29.79,14,6,0,0.00
2013-8-4,81.1,27.1,71.7,64.0,-42.8,-99.9,68,21,48,29.86,29.76,11,1,0,0.00
2013-8-5,77.1,27.5,66.5,57.0,-41.5,-99.9,66,20,46,30.03,29.86,4,0,0,0.00
2013-8-6,74.5,13.1,70.3,59.0,-71.6,-99.9,67,11,50,30.16,30.03,9,2,0,0.00
2013-8-7,75.7,27.0,70.5,62.0,-41.2,-99.9,67,23,57,30.19,30.13,11,2,0,0.00
2013-8-8,75.9,18.4,71.3,57.0,-62.5,-99.9,54,11,34,30.14,30.04,19,10,0,0.00
2013-8-9,-200.0,0.0,200.0,-99.9,-99.9,-99.9,0,0,100,30.06,29.79,25,13,0,0.00
2013-8-10,82.8,31.2,74.6,68.0,-35.0,-99.9,66,24,57,30.00,29.79,12,3,0,0.00
2013-8-11,75.0,28.5,70.5,62.0,-38.0,-99.9,67,24,55,30.08,29.99,14,4,0,0.00
2013-8-12,75.5,21.6,71.0,57.0,-57.5,-99.9,54,11,21,30.04,29.92,11,4,0,0.00
2013-8-13,-200.0,0.0,200.0,-99.9,-99.9,-99.9,0,0,100,29.92,29.68,7,1,0,0.00
2013-8-14,74.3,27.3,66.8,58.0,-40.3,-99.9,66,23,55,29.95,29.66,11,2,0,0.00
2013-8-15,73.4,26.2,67.5,59.0,-42.2,-99.9,68,22,49,30.12,29.95,17,4,0,0.00
2013-8-16,74.4,30.3,70.1,62.0,-33.4,-99.9,67,27,50,30.19,30.11,16,4,0,0.00
2013-8-17,79.7,30.3,71.4,66.0,-35.1,-99.9,67,26,61,30.27,30.19,2,0,0,0.00
2013-8-18,-200.0,0.0,200.0,-99.9,-99.9,-99.9,0,0,100,30.27,30.08,2,0,0,0.00
2013-8-19,81.2,27.5,68.4,66.0,-41.8,-99.9,67,22,41,30.09,29.95,7,2,0,0.00
2013-8-20,80.0,30.9,72.5,67.0,-35.0,-99.9,67,24,47,30.09,29.97,12,3,0,0.00
2013-8-21,80.5,31.7,74.4,67.0,-34.3,-99.9,66,24,38,30.14,30.03,16,4,0,0.00
2013-8-22,78.7,29.1,71.7,54.0,-48.2,-99.9,43,9,13,30.04,29.84,14,-4,0,0.00
2013-8-23,79.4,30.8,72.3,64.0,-34.5,-99.9,66,25,49,30.09,29.81,7,1,0,0.00
2013-8-24,76.7,29.1,69.4,59.0,-38.2,-99.9,66,21,42,30.33,30.09,2,0,0,0.00
2013-8-25,76.9,30.7,67.8,62.0,-33.4,-99.9,67,26,54,30.36,30.21,13,4,0,0.00
2013-8-26,-200.0,0.0,200.0,-99.9,-99.9,-99.9,0,0,100,30.20,29.89,18,8,0,0.00
2013-8-27,-200.0,0.0,200.0,-99.9,-99.9,-99.9,0,0,100,29.89,29.82,7,-10,0,0.00
2013-8-28,80.6,25.5,72.1,67.0,-51.5,-99.9,64,13,11,29.93,29.84,3,0,0,0.00
2013-8-29,-200.0,0.0,200.0,-99.9,-99.9,-99.9,0,0,100,30.03,29.93,4,-10,0,0.00
2013-8-30,66.7,13.9,64.5,39.0,-71.8,-99.9,36,6,19,30.00,29.95,6,1,0,0.00
2013-9-2,-200.0,0.0,200.0,-99.9,-99.9,-99.9,0,0,100,29.78,29.72,12,7,0,0.00
2013-9-3,74.4,-10.7,-90.0,53.0,-89.1,-99.9,47,3,28,29.83,29.69,11,3,0,0.00
2013-9-4,78.8,29.2,-90.0,65.0,-30.4,-99.9,74,28,28,29.93,29.80,10,2,0,0.03
2013-9-5,69.2,2.8,67.6,57.0,-93.5,-99.9,66,3,51,30.11,29.87,5,1,0,0.10
2013-9-6,67.6,28.0,53.8,54.0,-33.7,-99.9,75,28,55,30.23,30.11,6,0,0,0.87
2013-9-7,71.9,27.4,64.0,60.0,-38.0,-99.9,73,25,54,30.11,29.88,18,7,0,0.00
2013-9-8,78.3,33.0,67.9,65.0,-28.1,-99.9,72,29,47,30.08,29.74,11,3,0,0.00
2013-9-9,65.0,26.2,54.4,54.0,-36.6,-99.9,75,28,57,30.24,30.08,12,3,0,1.61
2013-9-10,-200.0,0.0,200.0,-99.9,-99.9,-99.9,0,0,100,30.18,30.06,19,11,0,0.00
2013-9-11,78.7,30.1,72.6,65.0,-38.0,-99.9,64,21,19,30.10,29.98,15,8,0,27.55
2013-9-12,73.5,22.2,72.0,47.0,-57.4,-99.9,40,9,23,30.00,29.70,18,11,0,1.98
2013-9-13,74.9,13.0,71.5,63.0,-72.2,-99.9,66,10,50,29.73,29.57,13,3,0,0.01
2013-9-14,72.2,30.1,59.6,59.0,-30.1,-99.9,71,30,59,30.05,29.73,2,0,0,0.00
2013-9-15,67.2,29.0,55.5,57.0,-31.0,-99.9,71,30,24,30.17,30.05,14,4,0,0.00
2013-9-16,-200.0,0.0,200.0,-99.9,-99.9,-99.9,0,0,100,30.19,30.02,5,1,0,0.00
2013-9-17,61.3,25.2,48.5,46.0,-37.0,-99.9,73,27,51,30.39,30.20,7,0,0,0.00
2013-9-18,68.7,29.3,51.7,53.0,-31.7,-99.9,73,27,47,30.32,30.15,12,3,0,0.00
2013-9-19,73.5,29.3,55.3,60.0,-32.2,-99.9,71,29,32,30.16,30.04,12,-8,0,0.00
2013-9-20,73.4,30.7,58.3,62.0,-31.8,-99.9,71,26,19,30.09,30.01,11,2,0,0.00
2013-9-21,72.9,29.6,64.1,62.0,-34.1,-99.9,69,25,47,30.04,29.76,15,8,0,0.00
2013-9-22,72.8,8.3,68.8,61.0,-81.3,-99.9,69,8,63,29.80,29.64,21,6,0,0.00
2013-9-23,67.9,24.9,50.5,51.0,-39.3,-99.9,73,26,53,29.99,29.80,5,0,0,0.00
2013-9-24,69.5,26.1,43.4,52.0,-35.5,-99.9,72,27,42,29.99,29.81,4,0,0,0.00
2013-9-25,66.2,24.7,50.5,52.0,-40.0,-99.9,71,26,56,29.97,29.88,2,0,0,0.00
2013-9-26,65.6,18.7,58.4,53.0,-53.9,-99.9,72,21,63,30.10,29.97,1,0,0,0.00
2013-9-27,66.9,6.4,64.2,56.0,-84.8,-99.9,70,7,66,30.25,30.10,2,-22,0,0.00
2013-9-28,72.7,30.4,51.2,60.0,-30.8,-99.9,72,28,25,30.30,30.23,1,-11,0,0.00
2013-9-29,68.6,24.3,52.2,56.0,-42.9,-99.9,71,23,20,30.25,30.09,2,0,0,0.00
2013-9-30,70.9,28.8,60.0,58.0,-34.1,-99.9,72,27,19,30.08,29.96,1,0,0,0.00
2013-10-1,78.7,30.7,51.7,62.0,-31.8,-99.9,70,26,24,29.96,29.85,6,0,0,0.00
2013-10-2,80.4,31.4,60.1,65.0,-32.3,-99.9,69,26,54,29.94,29.82,11,-8,0,0.00
2013-10-3,67.6,10.8,61.2,56.0,-74.2,-99.9,71,12,67,30.07,29.95,2,0,0,0.00
2013-10-4,67.3,11.7,57.3,57.0,-72.5,-99.9,71,11,37,30.07,30.02,3,0,0,0.00
2013-10-5,-200.0,0.0,200.0,-99.9,-99.9,-99.9,0,0,100,30.11,30.04,0,-11,0,0.00
2013-10-6,-200.0,0.0,200.0,-99.9,-99.9,-99.9,0,0,100,30.19,30.11,3,0,0,0.00
2013-10-7,72.1,8.0,71.1,45.0,-84.1,-99.9,39,4,27,30.10,29.84,20,9,0,0.00
2013-10-8,69.7,25.4,54.9,52.0,-40.8,-99.9,71,24,51,30.34,29.87,4,0,0,0.00
2013-10-9,61.9,24.0,55.2,50.0,-40.4,-99.9,70,27,64,30.42,30.34,2,0,0,0.00
2013-10-10,65.5,11.7,61.4,54.0,-72.1,-99.9,68,12,57,30.33,30.12,3,0,0,0.00
2013-10-11,68.5,21.9,61.9,57.0,-49.1,-99.9,70,21,29,30.12,30.07,7,0,0,0.00
2013-10-12,64.5,17.5,59.8,53.0,-58.5,-99.9,66,16,35,30.35,30.11,4,-10,0,0.00
2013-10-13,62.7,22.3,55.8,50.0,-44.2,-99.9,71,25,63,30.41,30.32,3,0,0,0.00
2013-10-14,62.7,22.4,40.6,52.0,-44.1,-99.9,70,23,22,30.39,30.26,4,0,0,4.45
2013-10-15,66.3,6.3,62.7,53.0,-85.0,-99.9,69,6,63,30.27,30.16,0,-20,0,0.00
2013-10-16,-200.0,0.0,200.0,-99.9,-99.9,-99.9,0,0,100,30.15,29.90,0,0,0,0.00
2013-10-17,69.7,20.4,-90.0,59.0,-47.2,-99.9,68,17,17,29.91,29.75,11,-6,0,0.00
2013-10-18,69.3,26.9,63.8,54.0,-40.3,-99.9,68,22,18,29.92,29.63,19,5,0,0.00
2013-10-19,63.2,20.5,48.7,51.0,-49.2,-99.9,70,22,56,29.99,29.76,11,2,0,0.00
2013-10-20,-200.0,0.0,200.0,-99.9,-99.9,-99.9,0,0,100,29.76,29.70,6,3,0,0.00
2013-10-26,54.7,27.1,38.8,40.0,-26.8,-99.9,72,33,56,30.17,29.88,26,15,0,0.02
2013-10-27,59.5,13.9,44.6,41.0,-63.7,-99.9,71,15,50,30.07,29.83,14,3,0,0.22
2013-10-28,-200.0,0.0,200.0,-99.9,-99.9,-99.9,0,0,100,30.33,30.07,1,0,0,0.00
2013-10-29,-200.0,0.0,200.0,-99.9,-99.9,-99.9,0,0,100,30.41,30.33,3,0,0,0.00
2013-10-30,-200.0,0.0,200.0,-99.9,-99.9,-99.9,0,0,100,30.37,30.20,0,0,0,0.00
2013-10-31,-200.0,0.0,200.0,-99.9,-99.9,-99.9,0,0,100,30.24,29.86,20,7,0,0.00
2013-11-1,-200.0,0.0,200.0,-99.9,-99.9,-99.9,0,0,100,29.84,29.54,29,18,0,0.00
2013-11-2,-200.0,0.0,200.0,-99.9,-99.9,-99.9,0,0,100,29.71,29.59,4,0,0,0.00
2013-11-3,-200.0,0.0,200.0,-99.9,-99.9,-99.9,0,0,100,30.36,29.71,5,1,0,0.00
2013-11-4,-200.0,0.0,200.0,-99.9,-99.9,-99.9,0,0,100,30.70,30.37,3,0,0,0.00
2013-11-5,-200.0,0.0,200.0,-99.9,-99.9,-99.9,0,0,100,30.70,30.52,6,0,0,0.00
2013-11-6,-200.0,0.0,200.0,-99.9,-99.9,-99.9,0,0,100,30.52,30.08,15,-5,0,0.00
2013-11-7,-200.0,0.0,200.0,-99.9,-99.9,-99.9,0,0,100,30.07,29.89,20,-28,0,0.00